Погода в Жау

Бразилия     22°18′04″S   48°34′28″W
темп.,
°C
ветер,
м/с
пор.,
м/с
влажн.,
%
обл.,
%
осадки,
мм/ч
давл.,
гПа
погр.,
м
27 февраля, сб
сб2700:00+19юв369614 0.0 1013146
03:00+18вюв239620 0.0 101361
06:00+17вюв23960 0.0 101366
09:00+22всв24840 0.1 1015501
12:00+26вюв01762 4.5 1013896
15:00+26в22758 8.1 1010893
18:00+23вюв368825 3.8 1010187
21:00+20в259263 6.8 1012152
28 февраля, вс
вс2800:00+19в4119499 0.1 1013450
03:00+19вюв269596 0.5 1012196
06:00+19в3894100 0.0 1013302
09:00+21всв388798 0.1 1014434
12:00+25ссв477946 3.1 1013997
15:00+27ссв356426 3.8 10101267
18:00+24в35830 0.5 1010149
21:00+20в23881 0.9 101255
1 марта, пн
пн100:00+19в349211 0.6 101397
03:00+19в239234 0.6 101150
06:00+19св289393 0.0 1013250
09:00+23ссв478288 0.1 1013575
12:00+26с47750 1.9 10131090
15:00+26с357417 3.5 10101150
18:00+25всв22773 0.1 100944
21:00+21в237911 0.1 101225
2 марта, вт
вт200:00+20всв368895 0.3 1013111
03:00+20всв239092 0.4 101288
06:00+20св238996 0.0 101378
09:00+24ссв367997 0.0 1015513
12:00+27ссв456892 0.1 1014992
15:00+27с347260 2.2 10111023
18:00+24ссз1187100 4.4 101125
21:00+22всв2288100 4.5 101424
3 марта, ср
ср300:00+21в228795 0.0 101523
03:00+20св229298 2.6 101447
06:00+19св2591100 0.0 1015125
09:00+23ссв368398 0.4 1017393
12:00+27с466699 0.0 10151223
15:00+26с137699 4.2 1013819
18:00+23сз1190100 3.8 101234
21:00+22св0188100 4.4 101523